OYYYYY ESGT-ESGT

Flight info

Callsign OYYYYY
Flight time N/A
Altitude
Route
Aircraft

Departure

Time 2026-05-04 18:03
Airport Trollhättan-Vänersborg Airport (ESGT)

Arrival

Time N/A
Airport Trollhättan-Vänersborg Airport (ESGT)
Time Latitude Longitude Altitude Speed Heading
2026-05-04 17:54 58.31170 12.35266 138 ft 0 kts 326°
2026-05-04 18:00 58.31372 12.35002 138 ft 79 kts 318°
2026-05-04 18:00 58.31984 12.34315 251 ft 111 kts 318°
2026-05-04 18:01 58.32001 12.33311 481 ft 91 kts 211°
2026-05-04 18:01 58.31412 12.33842 547 ft 114 kts 139°
2026-05-04 18:01 58.30822 12.34671 581 ft 102 kts 156°
2026-05-04 18:02 58.30206 12.36666 518 ft 116 kts 33°
2026-05-04 18:02 58.30745 12.36177 447 ft 110 kts 298°
2026-05-04 18:02 58.31269 12.35144 174 ft 108 kts 316°
2026-05-04 18:02 58.31865 12.34402 162 ft 111 kts 327°
2026-05-04 18:03 58.32631 12.33761 516 ft 129 kts 344°
2026-05-04 18:03 58.33527 12.33914 692 ft 125 kts
2026-05-04 18:03 58.34322 12.33964 740 ft 104 kts 317°
2026-05-04 18:03 58.34132 12.32620 686 ft 104 kts 199°
2026-05-04 18:04 58.33630 12.32742 508 ft 114 kts 181°
2026-05-04 18:04 58.32897 12.33122 313 ft 116 kts 157°
2026-05-04 18:04 58.31855 12.34422 198 ft 118 kts 154°
2026-05-04 18:05 58.31142 12.35071 349 ft 100 kts 184°
2026-05-04 18:05 58.30471 12.34934 437 ft 104 kts 196°
2026-05-04 18:05 58.29786 12.34746 683 ft 103 kts 184°
2026-05-04 18:05 58.29480 12.36383 778 ft 136 kts 29°
2026-05-04 18:06 58.30747 12.35874 326 ft 118 kts 319°
2026-05-04 18:06 58.31387 12.34994 147 ft 109 kts 321°
2026-05-04 18:06 58.31973 12.34290 294 ft 109 kts 329°
2026-05-04 18:07 58.32002 12.33210 859 ft 113 kts 227°
2026-05-04 18:07 58.31963 12.33142 889 ft 117 kts 225°
2026-05-04 18:08 58.31249 12.31948 946 ft 162 kts 224°
2026-05-04 18:08 58.30335 12.30785 1830 ft 159 kts 217°
2026-05-04 18:08 58.29151 12.30087 1216 ft 203 kts 183°
2026-05-04 18:08 58.27856 12.29832 896 ft 174 kts 205°
2026-05-04 18:09 58.25435 12.28925 660 ft 191 kts 185°
2026-05-04 18:09 58.22758 12.28130 1539 ft 201 kts 200°
2026-05-04 18:10 58.21481 12.27430 2385 ft 181 kts 202°
2026-05-04 18:10 58.20308 12.26820 2595 ft 183 kts 204°
2026-05-04 18:10 58.19624 12.26518 2632 ft 189 kts 199°
2026-05-04 18:10 58.18265 12.26118 2521 ft 204 kts 197°
2026-05-04 18:11 58.17010 12.25147 2617 ft 195 kts 212°
2026-05-04 18:11 58.15628 12.24512 2763 ft 209 kts 191°
2026-05-04 18:11 58.14226 12.24386 2797 ft 195 kts 189°
2026-05-04 18:11 58.12896 12.24237 2702 ft 187 kts 195°
2026-05-04 18:12 58.11608 12.24041 2634 ft 186 kts 192°
2026-05-04 18:12 58.10313 12.23834 2520 ft 191 kts 194°
2026-05-04 18:12 58.09029 12.23452 2657 ft 186 kts 197°
2026-05-04 18:12 58.07729 12.23101 2711 ft 189 kts 197°
2026-05-04 18:13 58.06444 12.22650 2737 ft 189 kts 200°
2026-05-04 18:13 58.05179 12.22066 2875 ft 185 kts 199°
2026-05-04 18:13 58.02619 12.21160 2866 ft 190 kts 194°
2026-05-04 18:14 58.01286 12.20964 2951 ft 189 kts 193°
2026-05-04 18:14 57.99928 12.21049 2700 ft 211 kts 176°
2026-05-04 18:14 57.98521 12.21429 2928 ft 195 kts 182°
2026-05-04 18:15 57.95865 12.21854 2913 ft 190 kts 183°
2026-05-04 18:15 57.93227 12.21925 2846 ft 189 kts 190°
2026-05-04 18:15 57.91904 12.21850 2850 ft 191 kts 191°
2026-05-04 18:16 57.90614 12.21696 3001 ft 187 kts 191°
2026-05-04 18:16 57.89279 12.21624 2949 ft 195 kts 184°
2026-05-04 18:16 57.87928 12.21783 2911 ft 196 kts 184°
2026-05-04 18:17 57.85195 12.22269 2788 ft 197 kts 188°
2026-05-04 18:17 57.83910 12.21756 2735 ft 189 kts 204°
2026-05-04 18:17 57.81205 12.22557 2903 ft 209 kts 167°
2026-05-04 18:18 57.79789 12.23319 2791 ft 211 kts 174°
2026-05-04 18:18 57.78376 12.24036 2850 ft 208 kts 172°
2026-05-04 18:18 57.76994 12.24724 2946 ft 204 kts 171°
2026-05-04 18:18 57.75600 12.25463 2814 ft 209 kts 174°
2026-05-04 18:19 57.72747 12.26103 2846 ft 203 kts 188°
2026-05-04 18:19 57.71326 12.25991 2832 ft 201 kts 192°
2026-05-04 18:19 57.69947 12.26281 2971 ft 208 kts 158°
2026-05-04 18:20 57.69158 12.28579 2889 ft 228 kts 98°
2026-05-04 18:20 57.69224 12.31491 2978 ft 220 kts 83°
2026-05-04 18:20 57.69269 12.34254 2866 ft 206 kts 91°
2026-05-04 18:20 57.69197 12.37012 2780 ft 220 kts 92°
2026-05-04 18:21 57.69094 12.39845 2782 ft 217 kts 92°
2026-05-04 18:21 57.69129 12.42653 2783 ft 211 kts 76°
2026-05-04 18:21 57.69760 12.45061 2827 ft 208 kts 44°
2026-05-04 18:21 57.70865 12.46664 2875 ft 204 kts 22°
2026-05-04 18:22 57.72100 12.48046 2807 ft 202 kts 17°
2026-05-04 18:22 57.73268 12.48200 2671 ft 127 kts 323°
2026-05-04 18:22 57.73732 12.47174 2336 ft 101 kts 290°
2026-05-04 18:22 57.73981 12.45973 2096 ft 98 kts 288°
2026-05-04 18:23 57.74279 12.44787 1979 ft 105 kts 291°
2026-05-04 18:23 57.74595 12.43547 2085 ft 103 kts 289°
2026-05-04 18:23 57.74903 12.42378 2021 ft 99 kts 291°
2026-05-04 18:23 57.75206 12.41236 1974 ft 96 kts 290°
2026-05-04 18:24 57.75527 12.40280 1869 ft 77 kts 296°
2026-05-04 18:24 57.75672 12.39310 1754 ft 85 kts 265°
2026-05-04 18:24 57.75436 12.38222 1747 ft 97 kts 236°
2026-05-04 18:24 57.75044 12.37162 1802 ft 102 kts 241°
2026-05-04 18:25 57.74559 12.36098 1840 ft 110 kts 236°
2026-05-04 18:25 57.74018 12.35076 1814 ft 115 kts 223°
2026-05-04 18:25 57.73286 12.34442 1719 ft 111 kts 216°
2026-05-04 18:25 57.72597 12.33830 1473 ft 108 kts 218°
2026-05-04 18:26 57.71950 12.33156 1390 ft 105 kts 218°
2026-05-04 18:26 57.71275 12.32529 1343 ft 112 kts 211°
2026-05-04 18:26 57.70590 12.31922 1162 ft 106 kts 216°
2026-05-04 18:26 57.69946 12.31311 1017 ft 102 kts 212°
2026-05-04 18:27 57.69379 12.30796 910 ft 86 kts 215°
2026-05-04 18:27 57.68787 12.30281 795 ft 93 kts 214°
2026-05-04 18:27 57.68263 12.29778 677 ft 85 kts 212°
2026-05-04 18:27 57.67705 12.29272 563 ft 91 kts 211°
2026-05-04 18:28 57.67191 12.28797 509 ft 74 kts 207°
2026-05-04 18:28 57.66674 12.28274 669 ft 92 kts 214°
2026-05-04 18:28 57.66049 12.27652 907 ft 106 kts 213°
2026-05-04 18:28 57.65389 12.26916 1016 ft 122 kts 218°
2026-05-04 18:29 57.64645 12.26010 1298 ft 130 kts 221°
2026-05-04 18:29 57.63875 12.25069 1630 ft 133 kts 222°
2026-05-04 18:29 57.63119 12.24094 2019 ft 130 kts 225°
2026-05-04 18:29 57.62432 12.23071 2295 ft 129 kts 229°
2026-05-04 18:30 57.61155 12.20518 2579 ft 138 kts 239°
2026-05-04 18:30 57.60537 12.19229 2850 ft 134 kts 229°
2026-05-04 18:30 57.60020 12.17935 2968 ft 121 kts 304°
2026-05-04 18:31 57.60778 12.16929 2835 ft 141 kts 315°
2026-05-04 18:31 57.61511 12.15703 3010 ft 140 kts 310°
2026-05-04 18:31 57.62181 12.14429 3100 ft 132 kts 308°
2026-05-04 18:31 57.62794 12.13141 3085 ft 139 kts 307°
2026-05-04 18:32 57.63451 12.11743 3092 ft 143 kts 304°